CALSPHERE 1 1 00900U 64063C 26177.97017495 .00000536 00000+0 53696-3 0 9998 2 00900 90.2228 72.0011 0023238 264.9038 113.4186 13.76633355 72774 CALSPHERE 2 1 00902U 64063E 26177.71951487 .00000054 00000+0 67478-4 0 9999 2 00902 90.2368 76.0242 0017911 193.7995 225.7486 13.52900867857559 LCS 1 1 01361U 65034C 26177.96658646 .00000013 00000+0 62019-3 0 9996 2 01361 32.1361 153.8014 0012302 157.8030 202.3001 9.89310857210857 TEMPSAT 1 1 01512U 65065E 26177.83965946 .00000043 00000+0 69078-4 0 9994 2 01512 89.9982 212.5948 0068374 220.2984 314.9586 13.33594521961336 CALSPHERE 4A 1 01520U 65065H 26177.88413134 .00000094 00000+0 16183-3 0 9999 2 01520 89.8988 122.3923 0072157 76.3580 345.9741 13.36280121964002 OPS 5712 (P/L 160) 1 02826U 67053A 26177.93099189 .00007825 00000+0 10964-2 0 9993 2 02826 69.9174 14.4116 0000991 298.0061 62.0987 14.77840130 67671 OPS 5712 (P/L 153) 1 02874U 67053H 26177.93380262 -.00000001 00000+0 37428-4 0 9997 2 02874 69.9741 94.4162 0007974 202.7824 157.2929 13.96829674 8151 RIGIDSPHERE 2 (LCS 4) 1 05398U 71067E 26177.93475627 .00000724 00000+0 22954-3 0 9999 2 05398 87.6219 336.1011 0059174 198.4124 161.4935 14.37878708875282 COSMOS 2493 (SKRL-756 1) 1 39490U 13078A 26177.94368764 .00003422 00000+0 25745-3 0 9990 2 39490 82.4125 251.6419 0012370 204.6971 155.3663 15.02206196679428 COSMOS 2494 (SKRL-756 2) 1 39491U 13078B 26177.92414536 .00003976 00000+0 27817-3 0 9994 2 39491 82.4122 241.0093 0016478 167.2409 192.9239 15.04921318680273